Simultaneous Nadir Overpasses (SNOs) Predictions

Prediction of SNOs between GOES-14 and NPP Satellite Orbit:

Table of predicted SNOs for the next 14.0 days since TLE Epoch: 1/2/2021
Index Date Time (GOES-14) GOES-14 Lat,Lon NPP Lat,Lon Distance(km) Time Diff (sec)
1 01/03/2021 20:20:27 0.08,-104.08 0.04,-104.28 22.89 80
2 01/04/2021 20:04:23 0.07,-104.08 1.06, -99.75 493.67 80
3 01/06/2021 08:26:11 -0.08,-104.36 0.09,-105.03 76.42 80
4 01/07/2021 08:04:46 -0.07,-104.36 -0.92,-100.50 439.79 80
5 01/08/2021 20:26:43 0.08,-104.07 -0.29,-105.80 196.40 80
6 01/09/2021 20:10:37 0.07,-104.07 0.67,-101.25 320.00 80
7 01/11/2021 08:29:47 -0.07,-104.35 0.43,-106.54 249.73 80
8 01/12/2021 08:11:02 -0.06,-104.35 -0.59,-102.01 266.35 80
9 01/13/2021 20:32:57 0.07,-104.06 -0.67,-107.30 370.23 80
10 01/14/2021 20:16:53 0.06,-104.06 0.35,-102.78 146.11 80
